(281423) = 2008 RZ138

Discovered at Catalina on 2008-09-06 by CSS.

Orbit

Orbit type: Main Belt

Note: WebGL enabled browser required.

epoch2024-03-31.0
epoch JD2460400.5
perihelion date2023-04-21.52163
perihelion JD2460056.02163
argument of perihelion (°)290.45327
ascending node (°)149.04551
inclination (°)9.17460
eccentricity0.2168017
perihelion distance (AU)2.1790408
Tisserand w.r.t. Jupiter3.3
ΔV w.r.t. Earth (km/sec)9.7
semimajor axis (AU)2.7822339
mean anomaly (°)73.16028
mean daily motion (°/day)0.21237990
aphelion distance (AU)3.385
period (years)4.64
P-vector [x]0.17609106
P-vector [y]0.95210879
P-vector [z]0.24996157
Q-vector [x]-0.98095165
Q-vector [y]0.14857158
Q-vector [z]0.12514129
absolute magnitude16.14
phase slope0.15
uncertainty0
referenceMPEC 2024-E73
observations used584
oppositions16
arc length (days)8914
first opposition used1999
last opposition used2024
residual rms (arc-secs)0.76
perturbers coarse indicatorM-v
perturbers precise indicator003Ek
first observation date used1999-10-09.0
last observation date used2024-03-05.0
computer nameMPCLINUX
JD of orbit computation2456760.746507
perihelion JD uncertainty (days)6.7257E-05
argument of perihelion uncertainty (°)4.5143E-05
ascending node uncertainty (°)4.1303E-05
inclination uncertainty (°)5.4100E-06
eccentricity uncertainty 5.2913E-08
perihelion distance uncertainty (AU)1.5156E-07
Minimum Orbit Intersection Distances (in AU)
for orbit epoch: 2460400.5, reference: E2024-GH2
Mercury1.87958
Venus1.47117
Earth1.215
Mars0.66406
Jupiter1.94101
Saturn6.70798
Uranus15.5781
Neptune27.0618

Observations

603 total observations over interval: 1999 10 09.34425 – 2024 03 05.365701
These data are available for download (format description).

Date (UT) J2000 RA J2000 Dec Magn Location Ref
1999 10 09.34425 03 44 01.20 +05 39 47.9 19.4 R 703 – Catalina Sky Survey MPS 311892
1999 10 09.35335 03 44 01.14 +05 39 43.1 19.1   704 – Lincoln Laboratory ETS, New Mexico MPS 311892
1999 10 09.35617 03 44 01.03 +05 39 43.8 19.5 R 703 – Catalina Sky Survey MPS 311892
1999 10 09.36668 03 44 01.09 +05 39 37.2 18.9   704 – Lincoln Laboratory ETS, New Mexico MPS 311892
1999 10 09.36811 03 44 01.03 +05 39 37.2 19.4 R 703 – Catalina Sky Survey MPS 311892
1999 10 09.38000 03 44 00.90 +05 39 31.1 19.5   704 – Lincoln Laboratory ETS, New Mexico MPS 311892
1999 10 09.38009 03 44 00.98 +05 39 34.0 19.5 R 703 – Catalina Sky Survey MPS 311892
1999 10 09.39491 03 44 00.84 +05 39 25.1 19.8   704 – Lincoln Laboratory ETS, New Mexico MPS 311892
2001 04 16.192420 12 46 41.413 +05 33 22.50 20.44 V 645 – Apache Point-Sloan Digital Sky Survey MPS 311892
2001 04 16.195892 12 46 41.261 +05 33 23.57 21.26   645 – Apache Point-Sloan Digital Sky Survey MPS 311892
2003 08 04.38769 22 16 10.22 -09 39 09.1 20.8 V 691 – Steward Observatory, Kitt Peak-Spacewatch MPS 311892
2003 08 04.41458 22 16 09.16 -09 39 19.2 20.6 V 691 – Steward Observatory, Kitt Peak-Spacewatch MPS 311892
2003 08 04.44022 22 16 08.15 -09 39 28.8 20.7 V 691 – Steward Observatory, Kitt Peak-Spacewatch MPS 311892
2005 01 18.24639 07 35 33.13 +12 25 14.9 18.0 R 703 – Catalina Sky Survey MPS 311892
2005 01 18.25532 07 35 32.70 +12 25 19.2 17.9 R 703 – Catalina Sky Survey MPS 311892
2005 01 18.26427 07 35 32.24 +12 25 22.4 17.9 R 703 – Catalina Sky Survey MPS 311892
2005 01 18.27316 07 35 31.67 +12 25 26.2 18.1 R 703 – Catalina Sky Survey MPS 311892
2006 02 02.50668 14 55 44.20 -08 25 16.7 21.7 V 691 – Steward Observatory, Kitt Peak-Spacewatch MPS 311892
2006 02 02.51917 14 55 44.76 -08 25 15.9 21.7 V 691 – Steward Observatory, Kitt Peak-Spacewatch MPS 311892
2006 02 02.53164 14 55 45.19 -08 25 15.7 21.8 V 691 – Steward Observatory, Kitt Peak-Spacewatch MPS 311892
2008 09 06.37909 00 47 11.76 -03 02 46.6 19.5 V 703 – Catalina Sky Survey MPS 311892
2008 09 06.38740 00 47 11.54 -03 02 50.6 19.3 V 703 – Catalina Sky Survey MPS 311892
2008 09 06.39572 00 47 11.22 -03 02 54.8 19.9 V 703 – Catalina Sky Survey MPS 311892
2008 09 06.40409 00 47 11.00 -03 02 58.4 19.7 V 703 – Catalina Sky Survey MPS 311892
2008 09 20.43627 00 39 03.45 -05 05 25.1 19.2 V 703 – Catalina Sky Survey MPS 311892
2008 09 20.44351 00 39 03.09 -05 05 27.7 19.5 V 703 – Catalina Sky Survey MPS 311892
2008 09 20.45075 00 39 02.84 -05 05 33.0 18.8 V 703 – Catalina Sky Survey MPS 311892
2008 09 20.45795 00 39 02.55 -05 05 35.9 18.5 V 703 – Catalina Sky Survey MPS 311892
2008 09 23.23637 00 37 05.03 -05 30 36.3 19.0   704 – Lincoln Laboratory ETS, New Mexico MPS 311892
2008 09 23.24869 00 37 04.43 -05 30 42.7 19.5   704 – Lincoln Laboratory ETS, New Mexico MPS 311892
2008 09 23.26098 00 37 03.93 -05 30 49.8 19.3   704 – Lincoln Laboratory ETS, New Mexico MPS 311892
2008 09 23.27329 00 37 03.34 -05 30 56.7 19.0   704 – Lincoln Laboratory ETS, New Mexico MPS 311892
2008 09 23.28534 00 37 02.84 -05 31 02.6 19.3   704 – Lincoln Laboratory ETS, New Mexico MPS 311892
2008 10 08.31420 00 25 38.89 -07 37 31.0 19.2 V 703 – Catalina Sky Survey MPS 311892
2008 10 08.32156 00 25 38.46 -07 37 35.2 19.3 V 703 – Catalina Sky Survey MPS 311892
2008 10 08.32883 00 25 38.17 -07 37 36.9 19.5 V 703 – Catalina Sky Survey MPS 311892
2008 10 08.33605 00 25 37.84 -07 37 41.2 19.2 V 703 – Catalina Sky Survey MPS 311892
2008 10 08.34728 00 25 37.23 -07 37 45.9 19.2 V 703 – Catalina Sky Survey MPS 311892
2008 10 08.35685 00 25 36.84 -07 37 49.6 19.3 V 703 – Catalina Sky Survey MPS 311892
2008 10 08.36659 00 25 36.40 -07 37 53.6 19.0 V 703 – Catalina Sky Survey MPS 311892
2008 10 08.37633 00 25 35.90 -07 37 59.5 19.4 V 703 – Catalina Sky Survey MPS 311892
2008 10 22.20716 00 16 14.36 -09 03 12.3 20.2   704 – Lincoln Laboratory ETS, New Mexico MPS 311892
2008 10 22.21863 00 16 13.95 -09 03 15.0 19.4   704 – Lincoln Laboratory ETS, New Mexico MPS 311892
2008 10 22.23008 00 16 13.53 -09 03 18.3 19.7   704 – Lincoln Laboratory ETS, New Mexico MPS 311892
2008 10 22.24161 00 16 13.14 -09 03 21.4 19.8   704 – Lincoln Laboratory ETS, New Mexico MPS 311892
2008 10 27.19056 00 13 37.84 -09 23 28.6 19.8 V 703 – Catalina Sky Survey MPS 311892
2008 10 27.19911 00 13 37.63 -09 23 29.6 19.7 V 703 – Catalina Sky Survey MPS 311892
2008 10 27.20759 00 13 37.34 -09 23 32.0 19.8 V 703 – Catalina Sky Survey MPS 311892
2008 10 27.21610 00 13 37.02 -09 23 34.0 19.4 V 703 – Catalina Sky Survey MPS 311892
2008 10 29.15523 00 12 44.96 -09 29 49.8 20.3   704 – Lincoln Laboratory ETS, New Mexico MPS 311892
2008 10 29.16740 00 12 44.71 -09 29 50.0 19.8   704 – Lincoln Laboratory ETS, New Mexico MPS 311892
2008 10 29.17932 00 12 44.33 -09 29 52.0 19.7   704 – Lincoln Laboratory ETS, New Mexico MPS 311892
2009 10 24.48973 10 07 34.75 +08 32 51.1 21.0 V G96 – Mt. Lemmon Survey MPS 311892
2009 10 24.49465 10 07 35.25 +08 32 48.3 21.2 V G96 – Mt. Lemmon Survey MPS 311892
2009 10 24.49955 10 07 35.68 +08 32 46.6 21.4 V G96 – Mt. Lemmon Survey MPS 311892
2009 10 24.50440 10 07 36.15 +08 32 44.9 21.1 V G96 – Mt. Lemmon Survey MPS 311892
2010 02 09.26595 11 22 58.17 +06 27 06.8 19.8 V 691 – Steward Observatory, Kitt Peak-Spacewatch MPS 313454
2010 02 09.28355 11 22 57.59 +06 27 15.1 19.8 V 691 – Steward Observatory, Kitt Peak-Spacewatch MPS 313454
2010 02 09.30116 11 22 56.98 +06 27 23.6 19.8 V 691 – Steward Observatory, Kitt Peak-Spacewatch MPS 313454
2010 02 15.28656 11 19 24.14 +07 16 54.6 19.5 V 691 – Steward Observatory, Kitt Peak-Spacewatch MPS 313454
2010 02 15.30765 11 19 23.28 +07 17 06.4 19.6 V 691 – Steward Observatory, Kitt Peak-Spacewatch MPS 313454
2010 02 15.32527 11 19 22.59 +07 17 15.7 19.7 V 691 – Steward Observatory, Kitt Peak-Spacewatch MPS 313454
2010 02 16.28673 11 18 44.75 +07 25 34.5 19.0   704 – Lincoln Laboratory ETS, New Mexico MPS 313454
2010 02 16.29915 11 18 44.22 +07 25 40.5 19.6   704 – Lincoln Laboratory ETS, New Mexico MPS 313454
2010 02 16.31129 11 18 43.72 +07 25 46.7 19.2   704 – Lincoln Laboratory ETS, New Mexico MPS 313454
2010 02 16.33561 11 18 42.69 +07 25 59.8 19.4   704 – Lincoln Laboratory ETS, New Mexico MPS 313454
2010 02 19.27763 11 16 41.05 +07 51 49.7   691 – Steward Observatory, Kitt Peak-Spacewatch MPS 313454
2010 02 19.29525 11 16 40.27 +07 51 59.2   691 – Steward Observatory, Kitt Peak-Spacewatch MPS 313454
2010 02 19.31286 11 16 39.49 +07 52 08.6   691 – Steward Observatory, Kitt Peak-Spacewatch MPS 313454
2010 03 04.33521 11 06 37.11 +09 48 55.9 18.5 V 703 – Catalina Sky Survey MPS 316788
2010 03 04.34157 11 06 36.90 +09 48 57.3 19.6 V 703 – Catalina Sky Survey MPS 316788
2010 03 04.34809 11 06 36.61 +09 49 02.0 19.2 V 703 – Catalina Sky Survey MPS 316788
2010 03 04.35449 11 06 36.25 +09 49 05.6 19.1 V 703 – Catalina Sky Survey MPS 316788
2010 03 12.24754 11 00 21.78 +10 55 54.2 19.5 V 703 – Catalina Sky Survey MPS 317999
2010 03 12.25326 11 00 21.56 +10 55 58.1 19.1 V 703 – Catalina Sky Survey MPS 317999
2010 03 12.25904 11 00 21.27 +10 56 00.9 19.5 V 703 – Catalina Sky Survey MPS 317999
2010 03 12.26481 11 00 20.98 +10 56 03.1 19.1 V 703 – Catalina Sky Survey MPS 317999
2010 03 18.26922 10 55 54.85 +11 41 49.6 19.5   704 – Lincoln Laboratory ETS, New Mexico MPS 319392
2010 03 18.28023 10 55 54.33 +11 41 54.9 19.7   704 – Lincoln Laboratory ETS, New Mexico MPS 319392
2010 03 18.30223 10 55 53.41 +11 42 04.0 19.6   704 – Lincoln Laboratory ETS, New Mexico MPS 319392
2010 03 18.31335 10 55 52.93 +11 42 08.1 19.8   704 – Lincoln Laboratory ETS, New Mexico MPS 319392
2010 03 20.32032 10 54 30.13 +11 56 09.4 19.8 V 703 – Catalina Sky Survey MPS 319392
2010 03 20.32726 10 54 29.77 +11 56 11.4 19.8 V 703 – Catalina Sky Survey MPS 319392
2010 03 20.33424 10 54 29.52 +11 56 14.3 20.1 V 703 – Catalina Sky Survey MPS 319392
2010 03 20.34120 10 54 29.30 +11 56 17.0 19.8 V 703 – Catalina Sky Survey MPS 319392
2010 05 16.19131 10 51 16.63 +13 21 12.9 21.3 V G96 – Mt. Lemmon Survey MPS 327463
2010 05 16.19721 10 51 16.81 +13 21 11.8 20.9 V G96 – Mt. Lemmon Survey MPS 327463
2010 05 16.20314 10 51 16.99 +13 21 11.1 20.5 V G96 – Mt. Lemmon Survey MPS 327463
